Year,Month,Day,Hour,Minute,Value (Times are PST for barometer in hPa)
2022,12,27,00,00,981.71
2022,12,27,00,01,981.58
2022,12,27,00,02,981.58
2022,12,27,00,03,981.58
2022,12,27,00,04,981.48
2022,12,27,00,05,981.48
2022,12,27,00,06,981.44
2022,12,27,00,07,981.34
2022,12,27,00,08,981.22
2022,12,27,00,09,981.34
2022,12,27,00,10,981.33
2022,12,27,00,11,981.17
2022,12,27,00,12,981.21
2022,12,27,00,13,981.10
2022,12,27,00,14,981.10
2022,12,27,00,15,981.21
2022,12,27,00,16,981.17
2022,12,27,00,17,981.10
2022,12,27,00,18,981.17
2022,12,27,00,19,981.17
2022,12,27,00,20,981.27
2022,12,27,00,21,981.34
2022,12,27,00,22,981.41
2022,12,27,00,23,981.41
2022,12,27,00,24,981.48
2022,12,27,00,25,981.38
2022,12,27,00,26,981.34
2022,12,27,00,27,981.44
2022,12,27,00,28,981.51
2022,12,27,00,29,981.47
2022,12,27,00,30,981.34
2022,12,27,00,31,981.33
2022,12,27,00,32,981.10
2022,12,27,00,33,981.10
2022,12,27,00,34,981.24
2022,12,27,00,35,981.27
2022,12,27,00,36,981.27
2022,12,27,00,37,981.27
2022,12,27,00,38,981.38
2022,12,27,00,39,981.28
2022,12,27,00,40,981.41
2022,12,27,00,41,981.27
2022,12,27,00,42,981.24
2022,12,27,00,43,981.21
2022,12,27,00,44,981.17
2022,12,27,00,45,981.17
2022,12,27,00,46,981.24
2022,12,27,00,47,981.24
2022,12,27,00,48,981.21
2022,12,27,00,49,981.14
2022,12,27,00,50,981.07
2022,12,27,00,51,981.10
2022,12,27,00,52,981.10
2022,12,27,00,53,981.17
2022,12,27,00,54,981.15
2022,12,27,00,55,981.27
2022,12,27,00,56,981.24
2022,12,27,00,57,981.17
2022,12,27,00,58,981.27
2022,12,27,00,59,981.34
2022,12,27,01,00,981.27
2022,12,27,01,01,981.17
2022,12,27,01,02,981.14
2022,12,27,01,03,981.24
2022,12,27,01,04,981.16
2022,12,27,01,05,981.03
2022,12,27,01,06,980.90
2022,12,27,01,07,980.83
2022,12,27,01,08,980.73
2022,12,27,01,09,980.70
2022,12,27,01,10,980.73
2022,12,27,01,11,980.66
2022,12,27,01,12,980.60
2022,12,27,01,13,980.53
2022,12,27,01,14,980.53
2022,12,27,01,15,980.56
2022,12,27,01,16,980.50
2022,12,27,01,17,980.50
2022,12,27,01,18,980.43
2022,12,27,01,19,980.43
2022,12,27,01,20,980.46
2022,12,27,01,21,980.39
2022,12,27,01,22,980.39
2022,12,27,01,23,980.29
2022,12,27,01,24,980.29
2022,12,27,01,25,980.22
2022,12,27,01,26,980.19
2022,12,27,01,27,980.13
2022,12,27,01,28,980.29
2022,12,27,01,29,980.26
2022,12,27,01,30,980.22
2022,12,27,01,31,980.19
2022,12,27,01,32,980.16
2022,12,27,01,33,980.09
2022,12,27,01,34,980.06
2022,12,27,01,35,979.99
2022,12,27,01,36,980.02
2022,12,27,01,37,980.12
2022,12,27,01,38,980.12
2022,12,27,01,39,980.16
2022,12,27,01,40,980.09
2022,12,27,01,41,980.12
2022,12,27,01,42,980.06
2022,12,27,01,43,980.06
2022,12,27,01,44,980.02
2022,12,27,01,45,980.06
2022,12,27,01,46,979.99
2022,12,27,01,47,979.89
2022,12,27,01,48,979.89
2022,12,27,01,49,979.85
2022,12,27,01,50,979.95
2022,12,27,01,51,979.95
2022,12,27,01,52,979.85
2022,12,27,01,53,979.92
2022,12,27,01,54,979.82
2022,12,27,01,55,979.85
2022,12,27,01,56,979.82
2022,12,27,01,57,979.78
2022,12,27,01,58,979.65
2022,12,27,01,59,979.58
2022,12,27,02,00,979.58
2022,12,27,02,01,979.61
2022,12,27,02,02,979.55
2022,12,27,02,03,979.61
2022,12,27,02,04,979.55
2022,12,27,02,05,979.51
2022,12,27,02,06,979.51
2022,12,27,02,07,979.48
2022,12,27,02,08,979.45
2022,12,27,02,09,979.51
2022,12,27,02,10,979.48
2022,12,27,02,11,979.45
2022,12,27,02,12,979.38
2022,12,27,02,13,979.34
2022,12,27,02,14,979.38
2022,12,27,02,15,979.31
2022,12,27,02,16,979.21
2022,12,27,02,17,979.17
2022,12,27,02,18,979.07
2022,12,27,02,19,979.01
2022,12,27,02,20,979.07
2022,12,27,02,21,979.04
2022,12,27,02,22,979.11
2022,12,27,02,23,979.11
2022,12,27,02,24,979.01
2022,12,27,02,25,979.01
2022,12,27,02,26,979.04
2022,12,27,02,27,979.07
2022,12,27,02,28,979.07
2022,12,27,02,29,978.97
2022,12,27,02,30,978.97
2022,12,27,02,31,978.97
2022,12,27,02,32,979.04
2022,12,27,02,33,978.97
2022,12,27,02,34,979.01
2022,12,27,02,35,979.07
2022,12,27,02,36,979.07
2022,12,27,02,37,979.04
2022,12,27,02,38,978.94
2022,12,27,02,39,978.97
2022,12,27,02,40,978.97
2022,12,27,02,41,979.01
2022,12,27,02,42,979.01
2022,12,27,02,43,979.04
2022,12,27,02,44,979.01
2022,12,27,02,45,979.01
2022,12,27,02,46,978.97
2022,12,27,02,47,978.94
2022,12,27,02,48,978.90
2022,12,27,02,49,978.90
2022,12,27,02,50,978.90
2022,12,27,02,51,978.90
2022,12,27,02,52,978.87
2022,12,27,02,53,978.79
2022,12,27,02,54,978.67
2022,12,27,02,55,978.60
2022,12,27,02,56,978.67
2022,12,27,02,57,978.60
2022,12,27,02,58,978.57
2022,12,27,02,59,978.57
2022,12,27,03,00,978.57
2022,12,27,03,01,978.63
2022,12,27,03,02,978.67
2022,12,27,03,03,978.63
2022,12,27,03,04,978.63
2022,12,27,03,05,978.63
2022,12,27,03,06,978.60
2022,12,27,03,07,978.57
2022,12,27,03,08,978.57
2022,12,27,03,09,978.50
2022,12,27,03,10,978.46
2022,12,27,03,11,978.40
2022,12,27,03,12,978.43
2022,12,27,03,13,978.33
2022,12,27,03,14,978.19
2022,12,27,03,15,978.19
2022,12,27,03,16,978.09
2022,12,27,03,17,978.02
2022,12,27,03,18,977.92
2022,12,27,03,19,977.89
2022,12,27,03,20,977.82
2022,12,27,03,21,977.82
2022,12,27,03,22,977.79
2022,12,27,03,23,977.79
2022,12,27,03,24,977.79
2022,12,27,03,25,977.79
2022,12,27,03,26,977.82
2022,12,27,03,27,977.75
2022,12,27,03,28,977.65
2022,12,27,03,29,977.65
2022,12,27,03,30,977.58
2022,12,27,03,31,977.55
2022,12,27,03,32,977.58
2022,12,27,03,33,977.58
2022,12,27,03,34,977.52
2022,12,27,03,35,977.41
2022,12,27,03,36,977.35
2022,12,27,03,37,977.38
2022,12,27,03,38,977.38
2022,12,27,03,39,977.31
2022,12,27,03,40,977.35
2022,12,27,03,41,977.35
2022,12,27,03,42,977.31
2022,12,27,03,43,977.28
2022,12,27,03,44,977.31
2022,12,27,03,45,977.24
2022,12,27,03,46,977.21
2022,12,27,03,47,977.21
2022,12,27,03,48,977.21
2022,12,27,03,49,977.21
2022,12,27,03,50,977.18
2022,12,27,03,51,977.18
2022,12,27,03,52,977.11
2022,12,27,03,53,977.08
2022,12,27,03,54,977.08
2022,12,27,03,55,977.01
2022,12,27,03,56,977.04
2022,12,27,03,57,976.97
2022,12,27,03,58,977.01
2022,12,27,03,59,976.94
2022,12,27,04,00,976.84
2022,12,27,04,01,976.77
2022,12,27,04,02,976.80
2022,12,27,04,03,976.74
2022,12,27,04,04,976.70
2022,12,27,04,05,976.77
2022,12,27,04,06,976.67
2022,12,27,04,07,976.70
2022,12,27,04,08,976.67
2022,12,27,04,09,976.67
2022,12,27,04,10,976.63
2022,12,27,04,11,976.60
2022,12,27,04,12,976.63
2022,12,27,04,13,976.70
2022,12,27,04,14,976.70
2022,12,27,04,15,976.70
2022,12,27,04,16,976.70
2022,12,27,04,17,976.70
2022,12,27,04,18,976.63
2022,12,27,04,19,976.57
2022,12,27,04,20,976.53
2022,12,27,04,21,976.43
2022,12,27,04,22,976.33
2022,12,27,04,23,976.36
2022,12,27,04,24,976.33
2022,12,27,04,25,976.33
2022,12,27,04,26,976.19
2022,12,27,04,27,976.09
2022,12,27,04,28,976.13
2022,12,27,04,29,976.13
2022,12,27,04,30,976.06
2022,12,27,04,31,976.09
2022,12,27,04,32,976.09
2022,12,27,04,33,975.99
2022,12,27,04,34,976.03
2022,12,27,04,35,975.99
2022,12,27,04,36,975.96
2022,12,27,04,37,975.96
2022,12,27,04,38,975.89
2022,12,27,04,39,975.96
2022,12,27,04,40,975.96
2022,12,27,04,41,975.92
2022,12,27,04,42,975.92
2022,12,27,04,43,975.92
2022,12,27,04,44,975.99
2022,12,27,04,45,975.92
2022,12,27,04,46,975.92
2022,12,27,04,47,975.92
2022,12,27,04,48,975.86
2022,12,27,04,49,975.82
2022,12,27,04,50,975.82
2022,12,27,04,51,975.79
2022,12,27,04,52,975.79
2022,12,27,04,53,975.89
2022,12,27,04,54,975.82
2022,12,27,04,55,975.75
2022,12,27,04,56,975.72
2022,12,27,04,57,975.74
2022,12,27,04,58,975.55
2022,12,27,04,59,975.69
2022,12,27,05,00,975.69
2022,12,27,05,01,975.62
2022,12,27,05,02,975.62
2022,12,27,05,03,975.75
2022,12,27,05,04,975.72
2022,12,27,05,05,975.74
2022,12,27,05,06,975.62
2022,12,27,05,07,975.62
2022,12,27,05,08,975.55
2022,12,27,05,09,975.45
2022,12,27,05,10,975.45
2022,12,27,05,11,975.52
2022,12,27,05,12,975.55
2022,12,27,05,13,975.59
2022,12,27,05,14,975.48
2022,12,27,05,15,975.62
2022,12,27,05,16,975.72
2022,12,27,05,17,975.69
2022,12,27,05,18,975.74
2022,12,27,05,19,975.62
2022,12,27,05,20,975.62
2022,12,27,05,21,975.55
2022,12,27,05,22,975.59
2022,12,27,05,23,975.52
2022,12,27,05,24,975.48
2022,12,27,05,25,975.48
2022,12,27,05,26,975.52
2022,12,27,05,27,975.38
2022,12,27,05,28,975.38
2022,12,27,05,29,975.42
2022,12,27,05,30,975.45
2022,12,27,05,31,975.35
2022,12,27,05,32,975.38
2022,12,27,05,33,975.31
2022,12,27,05,34,975.35
2022,12,27,05,35,975.35
2022,12,27,05,36,975.38
2022,12,27,05,37,975.31
2022,12,27,05,38,975.25
2022,12,27,05,39,975.18
2022,12,27,05,40,975.11
2022,12,27,05,41,975.11
2022,12,27,05,42,975.08
2022,12,27,05,43,975.11
2022,12,27,05,44,975.11
2022,12,27,05,45,975.08
2022,12,27,05,46,975.01
2022,12,27,05,47,975.04
2022,12,27,05,48,975.01
2022,12,27,05,49,974.91
2022,12,27,05,50,974.91
2022,12,27,05,51,974.84
2022,12,27,05,52,974.84
2022,12,27,05,53,974.84
2022,12,27,05,54,974.77
2022,12,27,05,55,974.71
2022,12,27,05,56,974.83
2022,12,27,05,57,974.67
2022,12,27,05,58,974.74
2022,12,27,05,59,974.74
2022,12,27,06,00,974.74
2022,12,27,06,01,974.84
2022,12,27,06,02,974.91
2022,12,27,06,03,974.81
2022,12,27,06,04,974.81
2022,12,27,06,05,974.91
2022,12,27,06,06,974.87
2022,12,27,06,07,974.91
2022,12,27,06,08,974.94
2022,12,27,06,09,974.87
2022,12,27,06,10,974.87
2022,12,27,06,11,974.84
2022,12,27,06,12,974.81
2022,12,27,06,13,974.67
2022,12,27,06,14,974.67
2022,12,27,06,15,974.60
2022,12,27,06,16,974.60
2022,12,27,06,17,974.60
2022,12,27,06,18,974.60
2022,12,27,06,19,974.57
2022,12,27,06,20,974.60
2022,12,27,06,21,974.60
2022,12,27,06,22,974.57
2022,12,27,06,23,974.67
2022,12,27,06,24,974.67
2022,12,27,06,25,974.70
2022,12,27,06,26,974.60
2022,12,27,06,27,974.67
2022,12,27,06,28,974.60
2022,12,27,06,29,974.60
2022,12,27,06,30,974.64
2022,12,27,06,31,974.64
2022,12,27,06,32,974.64
2022,12,27,06,33,974.60
2022,12,27,06,34,974.57
2022,12,27,06,35,974.64
2022,12,27,06,36,974.64
2022,12,27,06,37,974.57
2022,12,27,06,38,974.54
2022,12,27,06,39,974.57
2022,12,27,06,40,974.64
2022,12,27,06,41,974.57
2022,12,27,06,42,974.57
2022,12,27,06,43,974.50
2022,12,27,06,44,974.53
2022,12,27,06,45,974.41
2022,12,27,06,46,974.54
2022,12,27,06,47,974.50
2022,12,27,06,48,974.57
2022,12,27,06,49,974.50
2022,12,27,06,50,974.54
2022,12,27,06,51,974.54
2022,12,27,06,52,974.57
2022,12,27,06,53,974.54
2022,12,27,06,54,974.47
2022,12,27,06,55,974.54
2022,12,27,06,56,974.47
2022,12,27,06,57,974.50
2022,12,27,06,58,974.47
2022,12,27,06,59,974.47
2022,12,27,07,00,974.47
2022,12,27,07,01,974.47
2022,12,27,07,02,974.43
2022,12,27,07,03,974.47
2022,12,27,07,04,974.47
2022,12,27,07,05,974.54
2022,12,27,07,06,974.47
2022,12,27,07,07,974.54
2022,12,27,07,08,974.57
2022,12,27,07,09,974.64
2022,12,27,07,10,974.67
2022,12,27,07,11,974.67
2022,12,27,07,12,974.64
2022,12,27,07,13,974.60
2022,12,27,07,14,974.67
2022,12,27,07,15,974.67
2022,12,27,07,16,974.70
2022,12,27,07,17,974.77
2022,12,27,07,18,974.70
2022,12,27,07,19,974.77
2022,12,27,07,20,974.74
2022,12,27,07,21,974.70
2022,12,27,07,22,974.70
2022,12,27,07,23,974.67
2022,12,27,07,24,974.67
2022,12,27,07,25,974.67
2022,12,27,07,26,974.67
2022,12,27,07,27,974.67
2022,12,27,07,28,974.67
2022,12,27,07,29,974.64
2022,12,27,07,30,974.64
2022,12,27,07,31,974.64
2022,12,27,07,32,974.57
2022,12,27,07,33,974.57
2022,12,27,07,34,974.54
2022,12,27,07,35,974.54
2022,12,27,07,36,974.50
2022,12,27,07,37,974.47
2022,12,27,07,38,974.54
2022,12,27,07,39,974.54
2022,12,27,07,40,974.50
2022,12,27,07,41,974.50
2022,12,27,07,42,974.54
2022,12,27,07,43,974.50
2022,12,27,07,44,974.47
2022,12,27,07,45,974.47
2022,12,27,07,46,974.47
2022,12,27,07,47,974.54
2022,12,27,07,48,974.47
2022,12,27,07,49,974.47
2022,12,27,07,50,974.54
2022,12,27,07,51,974.57
2022,12,27,07,52,974.51
2022,12,27,07,53,974.64
2022,12,27,07,54,974.67
2022,12,27,07,55,974.67
2022,12,27,07,56,974.57
2022,12,27,07,57,974.64
2022,12,27,07,58,974.60
2022,12,27,07,59,974.57
2022,12,27,08,00,974.57
2022,12,27,08,01,974.54
2022,12,27,08,02,974.64
2022,12,27,08,03,974.67
2022,12,27,08,04,974.67
2022,12,27,08,05,974.67
2022,12,27,08,06,974.70
2022,12,27,08,07,974.67
2022,12,27,08,08,974.67
2022,12,27,08,09,974.70
2022,12,27,08,10,974.67
2022,12,27,08,11,974.67
2022,12,27,08,12,974.70
2022,12,27,08,13,974.67
2022,12,27,08,14,974.74
2022,12,27,08,15,974.70
2022,12,27,08,16,974.77
2022,12,27,08,17,974.74
2022,12,27,08,18,974.77
2022,12,27,08,19,974.81
2022,12,27,08,20,974.81
2022,12,27,08,21,974.81
2022,12,27,08,22,974.84
2022,12,27,08,23,974.87
2022,12,27,08,24,974.91
2022,12,27,08,25,974.87
2022,12,27,08,26,974.87
2022,12,27,08,27,974.84
2022,12,27,08,28,974.77
2022,12,27,08,29,974.74
2022,12,27,08,30,974.84
2022,12,27,08,31,974.77
2022,12,27,08,32,974.81
2022,12,27,08,33,974.74
2022,12,27,08,34,974.84
2022,12,27,08,35,974.81
2022,12,27,08,36,974.91
2022,12,27,08,37,974.87
2022,12,27,08,38,974.94
2022,12,27,08,39,974.87
2022,12,27,08,40,974.91
2022,12,27,08,41,974.91
2022,12,27,08,42,974.94
2022,12,27,08,43,974.87
2022,12,27,08,44,974.91
2022,12,27,08,45,974.94
2022,12,27,08,46,974.91
2022,12,27,08,47,974.94
2022,12,27,08,48,974.98
2022,12,27,08,49,975.01
2022,12,27,08,50,974.94
2022,12,27,08,51,975.01
2022,12,27,08,52,975.01
2022,12,27,08,53,975.04
2022,12,27,08,54,975.01
2022,12,27,08,55,975.04
2022,12,27,08,56,975.04
2022,12,27,08,57,975.11
2022,12,27,08,58,974.98
2022,12,27,08,59,975.02
2022,12,27,09,00,975.14
2022,12,27,09,01,975.11
2022,12,27,09,02,975.14
2022,12,27,09,03,975.11
2022,12,27,09,04,975.14
2022,12,27,09,05,975.14
2022,12,27,09,06,975.21
2022,12,27,09,07,975.31
2022,12,27,09,08,975.25
2022,12,27,09,09,975.25
2022,12,27,09,10,975.28
2022,12,27,09,11,975.42
2022,12,27,09,12,975.39
2022,12,27,09,13,975.52
2022,12,27,09,14,975.52
2022,12,27,09,15,975.59
2022,12,27,09,16,975.59
2022,12,27,09,17,975.59
2022,12,27,09,18,975.65
2022,12,27,09,19,975.72
2022,12,27,09,20,975.69
2022,12,27,09,21,975.72
2022,12,27,09,22,975.72
2022,12,27,09,23,975.75
2022,12,27,09,24,975.75
2022,12,27,09,25,975.75
2022,12,27,09,26,975.79
2022,12,27,09,27,975.75
2022,12,27,09,28,975.75
2022,12,27,09,29,975.75
2022,12,27,09,30,975.72
2022,12,27,09,31,975.75
2022,12,27,09,32,975.72
2022,12,27,09,33,975.72
2022,12,27,09,34,975.75
2022,12,27,09,35,975.75
2022,12,27,09,36,975.72
2022,12,27,09,37,975.72
2022,12,27,09,38,975.65
2022,12,27,09,39,975.75
2022,12,27,09,40,975.82
2022,12,27,09,41,975.89
2022,12,27,09,42,975.92
2022,12,27,09,43,975.89
2022,12,27,09,44,975.96
2022,12,27,09,45,975.92
2022,12,27,09,46,975.96
2022,12,27,09,47,975.99
2022,12,27,09,48,975.99
2022,12,27,09,49,976.03
2022,12,27,09,50,976.09
2022,12,27,09,51,976.03
2022,12,27,09,52,975.99
2022,12,27,09,53,976.06
2022,12,27,09,54,976.06
2022,12,27,09,55,976.06
2022,12,27,09,56,976.06
2022,12,27,09,57,976.06
2022,12,27,09,58,976.09
2022,12,27,09,59,976.13
2022,12,27,10,00,976.16
2022,12,27,10,01,976.19
2022,12,27,10,02,976.26
2022,12,27,10,03,976.19
2022,12,27,10,04,976.23
2022,12,27,10,05,976.26
2022,12,27,10,06,976.26
2022,12,27,10,07,976.23
2022,12,27,10,08,976.30
2022,12,27,10,09,976.30
2022,12,27,10,10,976.33
2022,12,27,10,11,976.26
2022,12,27,10,12,976.26
2022,12,27,10,13,976.30
2022,12,27,10,14,976.26
2022,12,27,10,15,976.30
2022,12,27,10,16,976.26
2022,12,27,10,17,976.19
2022,12,27,10,18,976.23
2022,12,27,10,19,976.23
2022,12,27,10,20,976.36
2022,12,27,10,21,976.36
2022,12,27,10,22,976.47
2022,12,27,10,23,976.47
2022,12,27,10,24,976.50
2022,12,27,10,25,976.57
2022,12,27,10,26,976.50
2022,12,27,10,27,976.53
2022,12,27,10,28,976.60
2022,12,27,10,29,976.63
2022,12,27,10,30,976.60
2022,12,27,10,31,976.60
2022,12,27,10,32,976.63
2022,12,27,10,33,976.63
2022,12,27,10,34,976.60
2022,12,27,10,35,976.67
2022,12,27,10,36,976.67
2022,12,27,10,37,976.67
2022,12,27,10,38,976.63
2022,12,27,10,39,976.63
2022,12,27,10,40,976.63
2022,12,27,10,41,976.63
2022,12,27,10,42,976.60
2022,12,27,10,43,976.67
2022,12,27,10,44,976.60
2022,12,27,10,45,976.60
2022,12,27,10,46,976.63
2022,12,27,10,47,976.63
2022,12,27,10,48,976.57
2022,12,27,10,49,976.57
2022,12,27,10,50,976.60
2022,12,27,10,51,976.60
2022,12,27,10,52,976.60
2022,12,27,10,53,976.63
2022,12,27,10,54,976.67
2022,12,27,10,55,976.57
2022,12,27,10,56,976.60
2022,12,27,10,57,976.70
2022,12,27,10,58,976.63
2022,12,27,10,59,976.67
2022,12,27,11,00,976.67
2022,12,27,11,01,976.67
2022,12,27,11,02,976.70
2022,12,27,11,03,976.67
2022,12,27,11,04,976.63
2022,12,27,11,05,976.67
2022,12,27,11,06,976.67
2022,12,27,11,07,976.67
2022,12,27,11,08,976.80
2022,12,27,11,09,976.74
2022,12,27,11,10,976.70
2022,12,27,11,11,976.70
2022,12,27,11,12,976.77
2022,12,27,11,13,976.80
2022,12,27,11,14,976.77
2022,12,27,11,15,976.84
2022,12,27,11,16,976.87
2022,12,27,11,17,976.91
2022,12,27,11,18,976.94
2022,12,27,11,19,976.97
2022,12,27,11,20,977.01
2022,12,27,11,21,976.94
2022,12,27,11,22,976.97
2022,12,27,11,23,977.04
2022,12,27,11,24,977.04
2022,12,27,11,25,977.14
2022,12,27,11,26,977.11
2022,12,27,11,27,977.11
2022,12,27,11,28,977.18
2022,12,27,11,29,977.14
2022,12,27,11,30,977.14
2022,12,27,11,31,977.11
2022,12,27,11,32,977.14
2022,12,27,11,33,977.11
2022,12,27,11,34,977.14
2022,12,27,11,35,977.18
2022,12,27,11,36,977.18
2022,12,27,11,37,977.24
2022,12,27,11,38,977.21
2022,12,27,11,39,977.21
2022,12,27,11,40,977.28
2022,12,27,11,41,977.28
2022,12,27,11,42,977.24
2022,12,27,11,43,977.28
2022,12,27,11,44,977.24
2022,12,27,11,45,977.31
2022,12,27,11,46,977.31
2022,12,27,11,47,977.38
2022,12,27,11,48,977.45
2022,12,27,11,49,977.45
2022,12,27,11,50,977.41
2022,12,27,11,51,977.45
2022,12,27,11,52,977.48
2022,12,27,11,53,977.55
2022,12,27,11,54,977.55
2022,12,27,11,55,977.52
2022,12,27,11,56,977.55
2022,12,27,11,57,977.55
2022,12,27,11,58,977.62
2022,12,27,11,59,977.58
2022,12,27,12,00,977.55
2022,12,27,12,01,977.62
2022,12,27,12,02,977.58
2022,12,27,12,03,977.58
2022,12,27,12,04,977.65
2022,12,27,12,05,977.65
2022,12,27,12,06,977.68
2022,12,27,12,07,977.68
2022,12,27,12,08,977.72
2022,12,27,12,09,977.75
2022,12,27,12,10,977.68
2022,12,27,12,11,977.72
2022,12,27,12,12,977.79
2022,12,27,12,13,977.75
2022,12,27,12,14,977.79
2022,12,27,12,15,977.85
2022,12,27,12,16,977.92
2022,12,27,12,17,977.85
2022,12,27,12,18,977.85
2022,12,27,12,19,977.96
2022,12,27,12,20,977.92
2022,12,27,12,21,977.92
2022,12,27,12,22,977.99
2022,12,27,12,23,977.99
2022,12,27,12,24,977.99
2022,12,27,12,25,978.09
2022,12,27,12,26,978.06
2022,12,27,12,27,978.09
2022,12,27,12,28,978.09
2022,12,27,12,29,978.06
2022,12,27,12,30,978.12
2022,12,27,12,31,978.12
2022,12,27,12,32,978.12
2022,12,27,12,33,978.12
2022,12,27,12,34,978.12
2022,12,27,12,35,978.12
2022,12,27,12,36,978.19
2022,12,27,12,37,978.26
2022,12,27,12,38,978.23
2022,12,27,12,39,978.33
2022,12,27,12,40,978.29
2022,12,27,12,41,978.29
2022,12,27,12,42,978.29
2022,12,27,12,43,978.33
2022,12,27,12,44,978.36
2022,12,27,12,45,978.43
2022,12,27,12,46,978.40
2022,12,27,12,47,978.40
2022,12,27,12,48,978.43
2022,12,27,12,49,978.40
2022,12,27,12,50,978.50
2022,12,27,12,51,978.43
2022,12,27,12,52,978.46
2022,12,27,12,53,978.46
2022,12,27,12,54,978.50
2022,12,27,12,55,978.50
2022,12,27,12,56,978.46
2022,12,27,12,57,978.50
2022,12,27,12,58,978.57
2022,12,27,12,59,978.63
2022,12,27,13,00,978.63
2022,12,27,13,01,978.63
2022,12,27,13,02,978.63
2022,12,27,13,03,978.67
2022,12,27,13,04,978.67
2022,12,27,13,05,978.63
2022,12,27,13,06,978.70
2022,12,27,13,07,978.67
2022,12,27,13,08,978.67
2022,12,27,13,09,978.77
2022,12,27,13,10,978.70
2022,12,27,13,11,978.77
2022,12,27,13,12,978.77
2022,12,27,13,13,978.77
2022,12,27,13,14,978.73
2022,12,27,13,15,978.73
2022,12,27,13,16,978.73
2022,12,27,13,17,978.77
2022,12,27,13,18,978.77
2022,12,27,13,19,978.77
2022,12,27,13,20,978.80
2022,12,27,13,21,978.80
2022,12,27,13,22,978.80
2022,12,27,13,23,978.80
2022,12,27,13,24,978.84
2022,12,27,13,25,978.80
2022,12,27,13,26,978.90
2022,12,27,13,27,978.90
2022,12,27,13,28,978.90
2022,12,27,13,29,978.94
2022,12,27,13,30,978.97
2022,12,27,13,31,979.07
2022,12,27,13,32,979.07
2022,12,27,13,33,979.04
2022,12,27,13,34,979.07
2022,12,27,13,35,979.17
2022,12,27,13,36,979.17
2022,12,27,13,37,979.21
2022,12,27,13,38,979.17
2022,12,27,13,39,979.28
2022,12,27,13,40,979.24
2022,12,27,13,41,979.28
2022,12,27,13,42,979.34
2022,12,27,13,43,979.31
2022,12,27,13,44,979.34
2022,12,27,13,45,979.34
2022,12,27,13,46,979.41
2022,12,27,13,47,979.41
2022,12,27,13,48,979.41
2022,12,27,13,49,979.48
2022,12,27,13,50,979.55
2022,12,27,13,51,979.61
2022,12,27,13,52,979.55
2022,12,27,13,53,979.58
2022,12,27,13,54,979.61
2022,12,27,13,55,979.68
2022,12,27,13,56,979.68
2022,12,27,13,57,979.75
2022,12,27,13,58,979.78
2022,12,27,13,59,979.78
2022,12,27,14,00,979.89
2022,12,27,14,01,979.95
2022,12,27,14,02,979.89
2022,12,27,14,03,979.92
2022,12,27,14,04,979.92
2022,12,27,14,05,979.95
2022,12,27,14,06,980.06
2022,12,27,14,07,980.06
2022,12,27,14,08,980.09
2022,12,27,14,09,980.12
2022,12,27,14,10,980.19
2022,12,27,14,11,980.16
2022,12,27,14,12,980.19
2022,12,27,14,13,980.26
2022,12,27,14,14,980.22
2022,12,27,14,15,980.29
2022,12,27,14,16,980.29
2022,12,27,14,17,980.27
2022,12,27,14,18,980.39
2022,12,27,14,19,980.39
2022,12,27,14,20,980.36
2022,12,27,14,21,980.39
2022,12,27,14,22,980.29
2022,12,27,14,23,980.33
2022,12,27,14,24,980.36
2022,12,27,14,25,980.39
2022,12,27,14,26,980.50
2022,12,27,14,27,980.46
2022,12,27,14,28,980.50
2022,12,27,14,29,980.56
2022,12,27,14,30,980.56
2022,12,27,14,31,980.56
2022,12,27,14,32,980.60
2022,12,27,14,33,980.66
2022,12,27,14,34,980.77
2022,12,27,14,35,980.80
2022,12,27,14,36,980.87
2022,12,27,14,37,980.90
2022,12,27,14,38,980.87
2022,12,27,14,39,980.87
2022,12,27,14,40,981.00
2022,12,27,14,41,981.04
2022,12,27,14,42,981.10
2022,12,27,14,43,981.14
2022,12,27,14,44,981.14
2022,12,27,14,45,981.10
2022,12,27,14,46,981.21
2022,12,27,14,47,981.17
2022,12,27,14,48,981.24
2022,12,27,14,49,981.31
2022,12,27,14,50,981.27
2022,12,27,14,51,981.38
2022,12,27,14,52,981.38
2022,12,27,14,53,981.38
2022,12,27,14,54,981.34
2022,12,27,14,55,981.34
2022,12,27,14,56,981.38
2022,12,27,14,57,981.31
2022,12,27,14,58,981.41
2022,12,27,14,59,981.48
2022,12,27,15,00,981.51
2022,12,27,15,01,981.48
2022,12,27,15,02,981.44
2022,12,27,15,03,981.51
2022,12,27,15,04,981.55
2022,12,27,15,05,981.58
2022,12,27,15,06,981.58
2022,12,27,15,07,981.65
2022,12,27,15,08,981.65
2022,12,27,15,09,981.65
2022,12,27,15,10,981.71
2022,12,27,15,11,981.75
2022,12,27,15,12,981.75
2022,12,27,15,13,981.71
2022,12,27,15,14,981.75
2022,12,27,15,15,981.78
2022,12,27,15,16,981.78
2022,12,27,15,17,981.92
2022,12,27,15,18,981.92
2022,12,27,15,19,981.95
2022,12,27,15,20,981.92
2022,12,27,15,21,982.05
2022,12,27,15,22,982.02
2022,12,27,15,23,982.09
2022,12,27,15,24,982.09
2022,12,27,15,25,982.19
2022,12,27,15,26,982.19
2022,12,27,15,27,982.19
2022,12,27,15,28,982.19
2022,12,27,15,29,982.15
2022,12,27,15,30,982.22
2022,12,27,15,31,982.26
2022,12,27,15,32,982.32
2022,12,27,15,33,982.36
2022,12,27,15,34,982.39
2022,12,27,15,35,982.39
2022,12,27,15,36,982.43
2022,12,27,15,37,982.46
2022,12,27,15,38,982.43
2022,12,27,15,39,982.46
2022,12,27,15,40,982.53
2022,12,27,15,41,982.56
2022,12,27,15,42,982.56
2022,12,27,15,43,982.63
2022,12,27,15,44,982.63
2022,12,27,15,45,982.63
2022,12,27,15,46,982.56
2022,12,27,15,47,982.56
2022,12,27,15,48,982.66
2022,12,27,15,49,982.76
2022,12,27,15,50,982.90
2022,12,27,15,51,982.83
2022,12,27,15,52,982.90
2022,12,27,15,53,982.87
2022,12,27,15,54,982.87
2022,12,27,15,55,982.90
2022,12,27,15,56,982.91
2022,12,27,15,57,983.04
2022,12,27,15,58,983.10
2022,12,27,15,59,983.10
2022,12,27,16,00,983.17
2022,12,27,16,01,983.10
2022,12,27,16,02,983.14
2022,12,27,16,03,983.14
2022,12,27,16,04,983.07
2022,12,27,16,05,983.14
2022,12,27,16,06,983.14
2022,12,27,16,07,983.18
2022,12,27,16,08,983.34
2022,12,27,16,09,983.37
2022,12,27,16,10,983.44
2022,12,27,16,11,983.41
2022,12,27,16,12,983.31
2022,12,27,16,13,983.27
2022,12,27,16,14,983.31
2022,12,27,16,15,983.41
2022,12,27,16,16,983.48
2022,12,27,16,17,983.48
2022,12,27,16,18,983.58
2022,12,27,16,19,983.61
2022,12,27,16,20,983.51
2022,12,27,16,21,983.48
2022,12,27,16,22,983.54
2022,12,27,16,23,983.51
2022,12,27,16,24,983.64
2022,12,27,16,25,983.64
2022,12,27,16,26,983.75
2022,12,27,16,27,983.75
2022,12,27,16,28,983.68
2022,12,27,16,29,983.75
2022,12,27,16,30,983.78
2022,12,27,16,31,983.85
2022,12,27,16,32,983.88
2022,12,27,16,33,983.92
2022,12,27,16,34,983.95
2022,12,27,16,35,983.92
2022,12,27,16,36,983.98